Location: Bad Salzschlirf
(50.3750°N, 9.3000°E)
Time: 04:52:50
(UTC+02:00)

ISS - Pass Details

Date: 03 April 2020
Orbit: 417 x 423 km, 51.6° (Epoch: 29 March)

Event Time Altitude Azimuth Distance (km) Brightness Sun altitude
Rises 20:59:05 0° 286° (WNW) 2,362 2.3 -10.0°
Reaches altitude 10° 21:01:20 10° 275° (W) 1,496 0.4 -10.4°
Maximum altitude 21:04:18 30° 213° (SSW) 784 -2.3 -10.8°
Enters shadow 21:06:59 12° 153° (SSE) 1,386 -1.6 -11.2°
